Regional Weather Roundup
Issued by NWS

Home | Current Version | Previous Version | Graphics & Text | Print | Product List | Glossary On
Versions: 1 2 3 4 5 6 7 8 9 10 11 12 13 14 15 16 17 18 19 20 21 22 23 24 25 26 27 28 29 30 31 32 33 34 35 36 37 38 39 40 41 42 43 44 45 46 47 48 49 50
000
ASUS43 KBIS 272101
RWRND

NORTH DAKOTA REGIONAL WEATHER ROUNDUP
NATIONAL WEATHER SERVICE BISMARCK ND
400 PM CDT MON APR 27 2015

NOTE: "FAIR" INDICATES FEW OR NO CLOUDS BELOW 12,000 FEET WITH NO
SIGNIFICANT WEATHER AND/OR OBSTRUCTIONS TO VISIBILITY.


NDZ001>003-009>011-017-272200-
NORTHWEST NORTH DAKOTA

CITY           SKY/WX    TMP DP  RH WIND       PRES   REMARKS
WILLISTON      PTSUNNY   57  41  55 VRB6      30.29F
MINOT          CLOUDY    49  41  74 NW8       30.28F
MINOT AFB      CLOUDY    49  47  93 NW7       30.28S
$$

NDZ018>021-031>035-040>046-272200-
SOUTHWEST NORTH DAKOTA

CITY           SKY/WX    TMP DP  RH WIND       PRES   REMARKS
BISMARCK       CLOUDY    51  41  68 NW13      30.30F
DICKINSON      CLOUDY    47  38  71 NW8       30.29S
GARRISON         N/A     49  42  77 NW12      30.29S
HETTINGER ARPT CLOUDY    48  39  71 NW8       30.31F
$$

NDZ004>008-012>016-024-026-027-054-272200-
NORTHEAST NORTH DAKOTA

CITY           SKY/WX    TMP DP  RH WIND       PRES   REMARKS
GRAND FORKS    CLOUDY    67  42  40 N10       30.17F
GRND FRKS AFB  PTSUNNY   66  42  41 VRB6      30.17F
DEVILS LAKE    CLOUDY    50  39  66 N14       30.25S
$$

NDZ022-023-025-028>030-036>039-047>053-272200-
SOUTHEAST NORTH DAKOTA

CITY           SKY/WX    TMP DP  RH WIND       PRES   REMARKS
FARGO          MOSUNNY   73  25  16 MISG      30.16F
JAMESTOWN      MOSUNNY   64  40  41 NW15      30.19S
$$




USA.gov is the U.S. government's official web portal to all federal, state and local government web resources and services.